This is the latest recevied weather packets stored in our database for station/object DM4XI-13. If no packets are shown the sender has not sent any weather packets the latest 10 day(s).
| Time | Temp. | Humidity | Pressure | Rain* | Wind** | Luminosity | Snow |
|---|---|---|---|---|---|---|---|
| 1778253019 | 17.78° C | 48% | 1014.1 hPa | 0 mm | 0.89 m/s, 67° | 317 W/m² | - |
| 1778252958 | 17.78° C | 49% | 1014.4 hPa | 0 mm | 0.45 m/s, 29° | 325 W/m² | - |
| 1778252896 | 17.22° C | 48% | 1014.3 hPa | 0 mm | 0.89 m/s, 15° | 375 W/m² | - |
| 1778252835 | 17.22° C | 50% | 1014.3 hPa | 0 mm | 0.89 m/s, 256° | 432 W/m² | - |
| 1778252774 | 17.22° C | 50% | 1014.3 hPa | 0 mm | 0.45 m/s, 173° | 420 W/m² | - |
| 1778252713 | 17.22° C | 49% | 1014.3 hPa | 0 mm | 0.89 m/s, 93° | 232 W/m² | - |
| 1778252653 | 17.22° C | 50% | 1014.1 hPa | 0 mm | 0 m/s | 201 W/m² | - |
| 1778252592 | 17.22° C | 50% | 1014.3 hPa | 0 mm | 0 m/s | 180 W/m² | - |
| 1778252531 | 17.22° C | 48% | 1014.3 hPa | 0 mm | 0 m/s | 160 W/m² | - |
| 1778252470 | 17.22° C | 47% | 1014.4 hPa | 0 mm | 0 m/s | 159 W/m² | - |
| 1778252408 | 17.78° C | 47% | 1014.4 hPa | 0 mm | 0.45 m/s, 74° | 161 W/m² | - |
| 1778252347 | 17.78° C | 48% | 1014.4 hPa | 0 mm | 0.45 m/s, 5° | 170 W/m² | - |
| 1778252286 | 17.78° C | 48% | 1014.3 hPa | 0 mm | 0.89 m/s, 336° | 178 W/m² | - |
| 1778252225 | 17.78° C | 48% | 1014.4 hPa | 0 mm | 0.45 m/s, 37° | 180 W/m² | - |
| 1778252164 | 17.78° C | 48% | 1014.3 hPa | 0 mm | 0.45 m/s, 50° | 178 W/m² | - |
| 1778252103 | 17.78° C | 47% | 1014.4 hPa | 0 mm | 0 m/s | 178 W/m² | - |
| 1778252042 | 17.78° C | 48% | 1014.4 hPa | 0 mm | 0.45 m/s, 42° | 181 W/m² | - |
| 1778251981 | 17.78° C | 46% | 1014.4 hPa | 0 mm | 0.89 m/s, 280° | 184 W/m² | - |
| 1778251920 | 18.33° C | 48% | 1014.3 hPa | 0 mm | 0.89 m/s, 44° | 183 W/m² | - |
| 1778251859 | 18.33° C | 46% | 1014.3 hPa | 0 mm | 1.79 m/s, 0° | 185 W/m² | - |
| 1778251798 | 18.89° C | 44% | 1014.4 hPa | 0 mm | 1.34 m/s, 33° | 259 W/m² | - |
| 1778251737 | 18.89° C | 48% | 1014.5 hPa | 0 mm | 0.89 m/s, 8° | 432 W/m² | - |
| 1778251676 | 18.89° C | 47% | 1014.4 hPa | 0 mm | 0.89 m/s, 293° | 507 W/m² | - |
| 1778251554 | 18.33° C | 45% | 1014.4 hPa | 0 mm | 0 m/s | 311 W/m² | - |
| 1778251493 | 18.33° C | 46% | 1014.4 hPa | 0 mm | 0 m/s | 208 W/m² | - |
* Rain latest hour (hover to see other rain measurements)
** Current wind speed in m/s (hover to see current wind gust speed)